Weather History for Slidell, LA

Change the Weather History Date:

Saturday, February 1, 2014

  Actual Average (KNEW) Record (KNEW)
Temperature  
Mean Temperature 54 °F 54 °F  
Max Temperature 72 °F 63 °F 82 °F (1957)
Min Temperature 37 °F 46 °F 22 °F (1951)
Degree Days  
Heating Degree Days 10 11  
Month to date heating degree days 11  
Since 1 July heating degree days 867  
Cooling Degree Days 0 1  
Month to date cooling degree days 1  
Year to date cooling degree days 17  
Growing Degree Days 4 (Base 50)    
Moisture  
Dew Point 51 °F    
Average Humidity 89    
Maximum Humidity 100    
Minimum Humidity 63    
Precipitation  
Precipitation 0.00 in 0.20 in 4.85 in (1983)
Month to date precipitation 0.20  
Year to date precipitation 5.35  
Snow  
Snow 0.00 in - - ()
Month to date snowfall  
Since 1 July snowfall  
Snow Depth -    
Sea Level Pressure  
Sea Level Pressure 30.03 in    
Wind  
Wind Speed 4 mph (SE)    
Max Wind Speed 14 mph    
Max Gust Speed -    
Visibility 6 miles    
Events Fog    
T = Trace of Precipitation, MM = Missing Value Source: NWS Daily Summary

Daily Weather History Graph

Daily Weather History Graph

Search for Another Location

Airport:

Trip Planner

Search our weather history database for the weather conditions in past years. The results will help you decide how hot, cold, wet, or windy it might be!

Date:

Astronomy

Feb. 01, 2014 Rise Set
Actual Time 6:50 AM CST 5:36 PM CST
Civil Twilight 6:24 AM CST 6:01 PM CST
Nautical Twilight 5:56 AM CST 6:29 PM CST
Astronomical Twilight 5:27 AM CST 6:58 PM CST
Moon 7:51 AM CST (2/1) 7:56 PM CST (2/1)
Length of Visible Light 11h 36m
Length of Day
10h 45m
Waxing Crescent, 5% of the Moon is Illuminated
Feb 1
Waxing Crescent
Feb 6
First Quarter
Feb 14
Full
Feb 22
Last Quarter
Mar 1
New

Hourly Weather History & Observations

Time (CST) Temp. Windchill Dew Point Humidity Pressure Visibility Wind Dir Wind Speed Gust Speed Precip Events Conditions
12:53 AM 48.9 °F - 43.0 °F 80% 30.06 in 10.0 mi SE 5.8 mph - N/A   Clear
1:53 AM 46.9 °F - 42.1 °F 83% 30.05 in 10.0 mi SE 3.5 mph - N/A   Clear
2:53 AM 43.0 °F - 39.9 °F 89% 30.03 in 10.0 mi Calm Calm - N/A   Clear
3:53 AM 39.0 °F - 37.9 °F 96% 30.02 in 10.0 mi Calm Calm - N/A   Clear
4:53 AM 39.0 °F 36.8 °F 37.0 °F 93% 30.00 in 10.0 mi ESE 3.5 mph - N/A   Clear
5:44 AM 37.9 °F - 36.0 °F 93% 30.01 in 4.0 mi Calm Calm - N/A   Partly Cloudy
5:46 AM 39.0 °F 36.8 °F 37.0 °F 93% 30.01 in 1.8 mi ENE 3.5 mph - N/A   Partly Cloudy
5:53 AM 39.0 °F - 37.9 °F 96% 30.01 in 0.8 mi Calm Calm - N/A   Mist
5:59 AM 39.9 °F - 37.9 °F 93% 30.01 in 1.2 mi Calm Calm - N/A   Partly Cloudy
6:08 AM 37.9 °F - 37.0 °F 97% 30.01 in 0.8 mi Calm Calm - N/A   Mist
6:20 AM 39.9 °F - 39.0 °F 97% 30.02 in 1.2 mi Calm Calm - N/A   Partly Cloudy
6:23 AM 39.0 °F - 37.9 °F 96% 30.02 in 3.0 mi Calm Calm - N/A   Partly Cloudy
6:46 AM 37.9 °F - 37.0 °F 97% 30.03 in 2.5 mi Calm Calm - N/A   Mostly Cloudy
6:48 AM 37.4 °F - 37.4 °F 100% 30.03 in 0.8 mi Calm Calm - N/A   Mist
6:53 AM 37.9 °F 35.5 °F 37.0 °F 97% 30.03 in 0.2 mi North 3.5 mph - N/A Fog Fog
7:39 AM 41.0 °F 39.0 °F 39.0 °F 93% 30.04 in 1.0 mi North 3.5 mph - N/A   Mist
7:49 AM 42.8 °F 41.1 °F 41.0 °F 93% 30.05 in 0.8 mi North 3.5 mph - N/A   Mist
7:53 AM 43.0 °F - 42.1 °F 97% 30.05 in 0.5 mi Calm Calm - N/A Fog Fog
8:08 AM 46.9 °F - 45.0 °F 93% 30.05 in 2.0 mi Calm Calm - N/A   Mostly Cloudy
8:10 AM 46.9 °F - 46.0 °F 97% 30.05 in 4.0 mi Calm Calm - N/A   Scattered Clouds
8:53 AM 55.0 °F - 51.1 °F 86% 30.07 in 10.0 mi ESE 3.5 mph - N/A   Clear
9:53 AM 64.0 °F - 55.0 °F 73% 30.07 in 10.0 mi SE 8.1 mph - N/A   Clear
10:53 AM 68.0 °F - 57.0 °F 68% 30.06 in 10.0 mi SE 9.2 mph - N/A   Scattered Clouds
11:53 AM 69.1 °F - 57.0 °F 65% 30.05 in 10.0 mi SSE 10.4 mph - N/A   Overcast
12:53 PM 71.1 °F - 57.9 °F 63% 30.03 in 10.0 mi South 13.8 mph - N/A   Mostly Cloudy
1:53 PM 72.0 °F - 59.0 °F 64% 30.01 in 10.0 mi SSE 12.7 mph - N/A   Scattered Clouds
2:53 PM 72.0 °F - 60.1 °F 66% 30.00 in 10.0 mi SSE 9.2 mph - N/A   Clear
3:53 PM 70.0 °F - 60.1 °F 71% 30.01 in 10.0 mi SE 11.5 mph - N/A   Mostly Cloudy
4:53 PM 66.9 °F - 61.0 °F 81% 30.02 in 10.0 mi SE 9.2 mph - N/A   Mostly Cloudy
5:38 PM 66.0 °F - 61.0 °F 84% 30.02 in 10.0 mi SE 8.1 mph - N/A   Mostly Cloudy
5:46 PM 64.9 °F - 61.0 °F 87% 30.02 in 10.0 mi SE 9.2 mph - N/A   Mostly Cloudy
5:53 PM 64.9 °F - 61.0 °F 87% 30.02 in 10.0 mi SE 6.9 mph - N/A   Mostly Cloudy
6:48 PM 62.6 °F - 60.8 °F 94% 30.03 in 9.0 mi SE 6.9 mph - N/A   Scattered Clouds
6:53 PM 62.1 °F - 60.1 °F 93% 30.03 in 9.0 mi SE 5.8 mph - N/A   Mostly Cloudy
7:00 PM 62.1 °F - 60.1 °F 93% 30.03 in 8.0 mi SE 6.9 mph - N/A   Mostly Cloudy
7:11 PM 62.1 °F - 60.1 °F 93% 30.03 in 7.0 mi SE 6.9 mph - N/A   Overcast
7:29 PM 62.1 °F - 60.1 °F 93% 30.03 in 7.0 mi SE 4.6 mph - N/A   Overcast
7:46 PM 62.1 °F - 60.1 °F 93% 30.03 in 7.0 mi SE 5.8 mph - N/A   Overcast
7:53 PM 62.1 °F - 60.1 °F 93% 30.03 in 7.0 mi SE 8.1 mph - N/A   Overcast
8:30 PM 62.1 °F - 60.1 °F 93% 30.04 in 9.0 mi Variable 4.6 mph - N/A   Overcast
8:45 PM 62.1 °F - 60.1 °F 93% 30.04 in 7.0 mi SE 6.9 mph - N/A   Overcast
8:53 PM 62.1 °F - 60.1 °F 93% 30.04 in 5.0 mi SE 5.8 mph - N/A   Overcast
9:02 PM 61.0 °F - 60.1 °F 97% 30.04 in 2.5 mi SE 9.2 mph - N/A   Overcast
9:19 PM 61.0 °F - 60.1 °F 97% 30.04 in 3.0 mi SE 6.9 mph - N/A   Overcast
9:42 PM 61.0 °F - 60.1 °F 97% 30.04 in 2.0 mi SE 6.9 mph - N/A   Overcast
9:53 PM 61.0 °F - 60.1 °F 97% 30.04 in 2.0 mi SE 9.2 mph - N/A   Overcast
10:23 PM 61.0 °F - 60.1 °F 97% 30.04 in 3.0 mi SE 9.2 mph - N/A   Overcast
10:53 PM 61.0 °F - 60.1 °F 97% 30.04 in 3.0 mi SE 8.1 mph - N/A   Overcast
11:53 PM 62.1 °F - 60.1 °F 93% 30.03 in 8.0 mi SE 5.8 mph - N/A   Overcast